Location: Bad Salzschlirf
(50.3750°N, 9.3000°E)
Time: 05:47:39
(UTC+01:00)

ISS - Pass Details

Date: 09 December 2019
Orbit: 411 x 421 km, 51.6° (Epoch: 15 December)

Event Time Altitude Azimuth Distance (km) Brightness Sun altitude
Rises 17:35:14 0° 287° (WNW) 2,358 0.9 -11.4°
Reaches altitude 10° 17:37:24 10° 279° (W) 1,494 0.0 -11.7°
Maximum altitude 17:40:33 39° 209° (SSW) 639 -2.4 -12.2°
Drops below altitude 10° 17:43:43 10° 139° (SE) 1,493 -1.2 -12.6°
Enters shadow 17:45:10 - 133° (SE) 2,072 -0.5 -12.8°
